Regional Weather Roundup
Issued by NWS

Home | Current Version | Previous Version | Graphics & Text | Print | Product List | Glossary On
Versions: 1 2 3 4 5 6 7 8 9 10 11 12 13 14 15 16 17 18 19 20 21 22 23 24 25 26 27 28 29 30 31 32 33 34 35 36 37 38 39 40 41 42 43 44 45 46 47 48 49 50
000
ASUS43 KBIS 232202
RWRND

NORTH DAKOTA REGIONAL WEATHER ROUNDUP
NATIONAL WEATHER SERVICE BISMARCK ND
400 PM CST THU NOV 23 2017

NOTE: "FAIR" INDICATES FEW OR NO CLOUDS BELOW 12,000 FEET WITH NO
SIGNIFICANT WEATHER AND/OR OBSTRUCTIONS TO VISIBILITY.


NDZ001>003-009>011-017-232300-
NORTHWEST NORTH DAKOTA

CITY           SKY/WX    TMP DP  RH WIND       PRES   REMARKS
WILLISTON      CLOUDY    66  38  35 SW10      29.47F
MINOT          CLEAR     62  41  46 SW13      29.43F
MINOT AFB      CLEAR     63  41  43 SW15      29.40F
$$

NDZ018>021-031>035-040>046-232300-
SOUTHWEST NORTH DAKOTA

CITY           SKY/WX    TMP DP  RH WIND       PRES   REMARKS
BISMARCK       CLOUDY    72  39  30 W15       29.56F
DICKINSON      CLEAR     67  36  31 W20       29.56F
GARRISON         N/A     57  40  52 SW12      29.50F
HETTINGER ARPT PTCLDY    72  34  24 W17       29.65F
$$

NDZ004>008-012>016-024-026-027-054-232300-
NORTHEAST NORTH DAKOTA

CITY           SKY/WX    TMP DP  RH WIND       PRES   REMARKS
GRAND FORKS    PTCLDY    39  32  76 S13       29.54F
GRND FRKS AFB  CLEAR     38  31  76 S9        29.53F
DEVILS LAKE    PTCLDY    42  36  79 S8        29.49F
$$

NDZ022-023-025-028>030-036>039-047>053-232300-
SOUTHEAST NORTH DAKOTA

CITY           SKY/WX    TMP DP  RH WIND       PRES   REMARKS
FARGO          CLEAR     47  30  51 S13       29.60F
JAMESTOWN      CLOUDY    58  41  53 SW10      29.55F
$$





USA.gov is the U.S. government's official web portal to all federal, state and local government web resources and services.